QPF
0.01 0.00 0.00 0.00 0.00 0.00 0.00 0.00 0.00 0.00 0.00 0.00 0.00 0.00 0.00 0.00 0.00 0.00 0.00 0.00 0.00 0.00 0.00 0.00 0.00 0.00 0.00 0.00 0.00 0.00 0.00 0.00 0.00 0.00 0.01 0.01 0.01 0.02
0.00 0.00 0.00 0.00 0.00 0.00 0.00 0.00 0.00 0.00 0.00 0.00 0.00 0.00 0.00 0.00 0.00 0.00 0.00 0.00 0.00 0.00 0.00 0.00 0.00 0.00 0.00 0.00 0.00 0.00 0.00 0.00 0.00 0.01 0.01 0.01 0.02 0.03
0.01 0.00 0.00 0.00 0.00 0.00 0.00 0.00 0.00 0.00 0.00 0.00 0.00 0.00 0.00 0.00 0.00 0.00 0.00 0.00 0.00 0.00 0.00 0.00 0.00 0.00 0.00 0.00 0.00 0.00 0.00 0.00 0.00 0.01 0.01 0.02 0.02 0.03
0.00 0.00 0.00 0.00 0.00 0.00 0.00 0.00 0.00 0.00 0.00 0.00 0.00 0.00 0.00 0.00 0.00 0.00 0.00 0.00 0.00 0.00 0.00 0.00 0.00 0.00 0.00 0.00 0.00 0.00 0.00 0.00 0.00 0.00 0.00 0.00 0.00 0.01
0.00 0.00 0.00 0.00 0.00 0.00 0.00 0.00 0.00 0.00 0.00 0.00 0.00 0.00 0.00 0.00 0.00 0.00 0.00 0.00 0.00 0.00 0.00 0.00 0.00 0.00 0.00 0.00 0.00 0.00 0.00 0.00 0.00 0.00 0.00 0.00 0.00 0.00
0.00 0.00 0.00 0.00 0.00 0.00 0.00 0.00 0.00 0.00 0.00 0.00 0.00 0.00 0.00 0.00 0.00 0.00 0.00 0.00 0.00 0.00 0.00 0.00 0.00 0.00 0.00 0.00 0.00 0.00 0.00 0.00 0.00 0.00 0.00 0.00 0.00 0.00
0.00 0.00 0.00 0.00 0.00 0.00 0.00 0.00 0.00 0.00 0.00 0.00 0.00 0.00 0.00 0.00 0.00 0.00 0.00 0.00 0.00 0.00 0.00 0.00 0.00 0.00 0.00 0.00 0.00 0.00 0.00 0.00 0.00 0.00 0.00 0.00 0.01 0.01
0.00 0.00 0.00 0.00 0.00 0.00 0.00 0.00 0.00 0.00 0.00 0.00 0.00 0.00 0.00 0.00 0.00 0.00 0.00 0.00 0.00 0.00 0.00 0.00 0.00 0.00 0.00 0.00 0.00 0.00 0.00 0.00 0.00 0.00 0.00 0.00 0.01 0.01
0.00 0.00 0.00 0.00 0.00 0.00 0.00 0.00 0.00 0.00 0.00 0.00 0.00 0.00 0.00 0.00 0.00 0.00 0.00 0.00 0.00 0.00 0.00 0.00 0.00 0.00 0.00 0.00 0.00 0.00 0.00 0.00 0.00 0.00 0.00 0.00 0.00 0.01
0.00 0.00 0.00 0.00 0.00 0.00 0.00 0.00 0.00 0.00 0.00 0.00 0.00 0.00 0.00 0.00 0.00 0.00 0.00 0.00 0.00 0.00 0.00 0.00 0.00 0.00 0.00 0.00 0.00 0.00 0.00 0.00 0.00 0.00 0.00 0.00 0.00 0.00
0.00 0.00 0.00 0.00 0.00 0.00 0.00 0.00 0.00 0.00 0.00 0.00 0.00 0.00 0.00 0.00 0.00 0.00 0.00 0.00 0.00 0.00 0.00 0.00 0.00 0.00 0.00 0.00 0.00 0.00 0.00 0.00 0.00 0.00 0.00 0.00 0.00 0.00
0.00 0.00 0.00 0.00 0.00 0.00 0.00 0.00 0.00 0.00 0.00 0.00 0.00 0.00 0.00 0.00 0.00 0.00 0.00 0.00 0.00 0.00 0.00 0.00 0.00 0.00 0.00 0.00 0.00 0.00 0.00 0.00 0.00 0.00 0.00 0.00 0.00 0.00
0.00 0.00 0.00 0.00 0.00 0.00 0.00 0.00 0.00 0.00 0.00 0.00 0.00 0.00 0.00 0.00 0.00 0.00 0.00 0.00 0.00 0.00 0.00 0.00 0.00 0.00 0.00 0.00 0.00 0.00 0.00 0.00 0.00 0.00 0.00 0.00 0.00 0.00
0.00 0.00 0.00 0.00 0.00 0.00 0.00 0.00 0.00 0.00 0.00 0.00 0.00 0.00 0.00 0.00 0.00 0.00 0.00 0.00 0.00 0.00 0.00 0.00 0.00 0.00 0.00 0.00 0.00 0.00 0.00 0.00 0.00 0.00 0.00 0.00 0.00 0.00
0.00 0.00 0.00 0.00 0.00 0.00 0.00 0.00 0.00 0.00 0.00 0.00 0.00 0.00 0.00 0.00 0.00 0.00 0.00 0.00 0.00 0.00 0.00 0.00 0.00 0.00 0.00 0.00 0.00 0.00 0.00 0.00 0.00 0.00 0.00 0.00 0.00 0.00
0.00 0.00 0.00 0.00 0.00 0.00 0.00 0.00 0.00 0.00 0.00 0.00 0.00 0.00 0.00 0.00 0.00 0.00 0.00 0.00 0.00 0.00 0.00 0.00 0.00 0.00 0.00 0.00 0.00 0.00 0.00 0.00 0.00 0.00 0.00 0.00 0.00 0.00
0.00 0.00 0.00 0.00 0.00 0.00 0.00 0.00 0.00 0.00 0.00 0.00 0.00 0.00 0.00 0.00 0.00 0.00 0.00 0.00 0.00 0.00 0.00 0.00 0.00 0.00 0.00 0.00 0.00 0.00 0.00 0.00 0.00 0.00 0.00 0.00 0.00 0.00
0.00 0.00 0.00 0.00 0.00 0.00 0.00 0.00 0.00 0.00 0.00 0.00 0.00 0.00 0.00 0.00 0.00 0.00 0.00 0.00 0.00 0.00 0.00 0.00 0.00 0.00 0.00 0.00 0.00 0.00 0.00 0.00 0.00 0.00 0.00 0.00 0.00 0.00
0.00 0.00 0.00 0.00 0.00 0.00 0.00 0.00 0.00 0.00 0.00 0.00 0.00 0.00 0.00 0.00 0.00 0.00 0.00 0.00 0.00 0.00 0.00 0.00 0.00 0.00 0.00 0.00 0.00 0.00 0.00 0.00 0.00 0.00 0.00 0.00 0.00 0.00
0.00 0.00 0.00 0.00 0.00 0.00 0.00 0.00 0.00 0.00 0.00 0.00 0.00 0.00 0.00 0.00 0.00 0.00 0.00 0.00 0.00 0.00 0.00 0.00 0.00 0.00 0.01 0.00 0.00 0.00 0.00 0.00 0.00 0.00 0.00 0.00 0.00 0.00
0.00 0.00 0.00 0.00 0.00 0.00 0.00 0.00 0.00 0.00 0.00 0.00 0.00 0.00 0.00 0.00 0.00 0.00 0.00 0.00 0.00 0.00 0.00 0.00 0.00 0.00 0.00 0.00 0.00 0.00 0.00 0.00 0.00 0.00 0.00 0.00 0.00 0.00
0.00 0.00 0.00 0.00 0.00 0.00 0.00 0.00 0.00 0.00 0.00 0.00 0.00 0.00 0.00 0.00 0.00 0.00 0.00 0.00 0.00 0.00 0.00 0.00 0.00 0.00 0.01 0.01 0.00 0.00 0.00 0.00 0.00 0.00 0.00 0.00 0.00 0.00
0.00 0.00 0.00 0.00 0.00 0.00 0.00 0.00 0.00 0.00 0.00 0.00 0.00 0.00 0.00 0.00 0.00 0.00 0.00 0.00 0.00 0.00 0.00 0.00 0.00 0.00 0.00 0.00 0.00 0.00 0.00 0.00 0.00 0.00 0.00 0.00 0.00 0.00
MSLP
1016.66 1016.64 1017.31 1018.38 1019.19 1019.93 1020.62 1020.93 1021.46 1022.16 1022.73 1022.59 1023.33 1022.86 1023.46 1023.49 1023.65 1023.14 1022.40 1022.49 1022.72 1022.47 1021.97 1021.68 1021.41 1021.15 1020.74 1020.38 1019.95 1019.50 1019.09 1018.56 1018.14 1017.84 1017.70 1017.36 1017.18 1016.93
1017.32 1018.02 1018.45 1018.67 1018.80 1019.99 1020.85 1021.79 1022.02 1022.46 1023.13 1023.60 1023.65 1023.71 1023.49 1024.02 1023.21 1023.24 1022.59 1022.38 1022.22 1021.96 1021.68 1021.21 1020.75 1020.49 1020.20 1019.74 1019.20 1018.78 1018.40 1017.99 1017.56 1017.27 1016.88 1016.76 1016.48 1016.25
1017.90 1018.53 1019.79 1020.14 1019.85 1020.43 1021.14 1022.16 1022.33 1023.26 1023.15 1023.66 1023.61 1023.54 1023.78 1023.40 1022.48 1022.23 1022.01 1021.78 1021.30 1021.18 1020.90 1020.61 1020.22 1019.74 1019.40 1018.98 1018.57 1018.22 1017.83 1017.44 1017.10 1016.82 1016.49 1016.14 1015.79 1015.48
1018.15 1019.09 1020.09 1020.35 1021.66 1021.05 1021.73 1022.36 1022.98 1023.59 1023.60 1023.31 1023.11 1023.29 1023.28 1022.96 1022.27 1022.04 1021.61 1021.52 1021.04 1020.65 1020.52 1020.15 1019.59 1019.09 1018.78 1018.39 1018.00 1017.60 1017.22 1016.83 1016.48 1016.16 1015.88 1015.68 1015.28 1015.07
1018.35 1019.41 1020.17 1020.57 1021.67 1021.53 1021.90 1022.46 1022.99 1023.27 1023.80 1023.17 1022.55 1022.72 1023.10 1022.75 1022.18 1021.68 1021.22 1020.91 1020.49 1020.05 1019.68 1019.30 1018.85 1018.37 1018.07 1017.75 1017.30 1016.91 1016.59 1016.28 1015.98 1015.72 1015.45 1015.19 1014.86 1014.54
1019.05 1019.75 1020.56 1020.97 1021.27 1022.09 1022.20 1022.79 1022.67 1022.97 1023.46 1023.04 1022.24 1022.11 1022.38 1021.82 1021.75 1021.35 1020.58 1020.37 1019.80 1019.38 1019.05 1018.65 1018.20 1017.64 1017.50 1017.14 1016.62 1016.20 1015.90 1015.62 1015.40 1015.10 1014.78 1014.45 1014.09 1013.79
1019.91 1020.28 1020.78 1021.11 1021.48 1022.12 1022.11 1022.13 1022.31 1022.50 1022.80 1022.25 1021.66 1021.68 1021.52 1021.17 1021.07 1020.96 1020.54 1019.91 1019.47 1019.10 1018.48 1017.96 1017.41 1017.13 1016.70 1016.11 1015.53 1015.21 1014.96 1014.79 1014.53 1014.15 1013.76 1013.31 1012.93 1012.75
1020.50 1020.98 1021.21 1021.30 1021.69 1021.86 1021.99 1022.13 1022.22 1022.15 1021.90 1021.58 1021.63 1021.13 1020.77 1020.89 1021.05 1020.82 1020.44 1019.99 1019.40 1018.80 1018.23 1017.89 1017.34 1016.68 1015.95 1015.28 1014.82 1014.57 1014.25 1013.93 1013.64 1013.27 1012.82 1012.46 1012.25 1012.04
1020.95 1021.16 1021.30 1021.64 1021.96 1022.05 1021.97 1021.86 1021.73 1021.69 1021.67 1021.32 1021.02 1020.85 1020.81 1020.80 1021.04 1020.79 1020.37 1020.05 1019.50 1018.69 1018.26 1017.40 1016.83 1016.00 1015.21 1014.57 1014.21 1013.79 1013.44 1013.11 1012.70 1012.35 1012.01 1011.60 1011.24 1010.99
1021.50 1021.55 1021.71 1021.82 1021.82 1021.86 1021.50 1021.41 1021.35 1021.35 1021.22 1021.09 1020.97 1020.83 1020.69 1020.46 1020.36 1020.21 1019.75 1019.34 1018.74 1017.91 1017.61 1016.81 1016.11 1015.48 1014.76 1014.02 1013.65 1013.22 1012.74 1012.31 1011.95 1011.61 1011.24 1010.80 1010.44 1010.10
1021.65 1021.69 1021.63 1021.63 1021.70 1021.50 1021.15 1021.28 1021.09 1020.92 1020.90 1020.98 1020.90 1020.72 1020.54 1020.37 1020.25 1020.02 1019.53 1019.00 1018.26 1017.43 1016.99 1016.56 1015.50 1014.96 1014.48 1013.43 1012.82 1012.29 1012.05 1011.71 1011.33 1010.86 1010.45 1010.09 1009.74 1009.30
1021.49 1021.63 1021.81 1021.75 1021.63 1021.45 1021.26 1021.03 1020.97 1020.81 1020.68 1020.53 1020.11 1019.91 1019.83 1019.71 1019.82 1019.66 1019.35 1019.11 1018.75 1017.74 1016.21 1016.62 1015.68 1015.44 1013.94 1012.87 1012.33 1011.98 1011.42 1010.80 1010.43 1009.94 1009.53 1009.15 1008.84 1008.57
1021.53 1021.66 1021.77 1021.84 1021.69 1021.55 1021.39 1021.17 1021.06 1020.66 1020.18 1020.16 1019.93 1019.67 1019.46 1019.26 1019.09 1018.99 1018.98 1019.03 1018.72 1017.98 1016.68 1016.76 1015.97 1015.68 1015.20 1013.34 1011.91 1011.41 1010.86 1009.99 1009.38 1008.83 1008.47 1008.12 1007.83 1007.67
1021.75 1021.78 1021.78 1021.86 1021.69 1021.51 1021.32 1021.10 1020.86 1020.67 1020.35 1020.10 1019.86 1019.52 1019.31 1019.21 1019.07 1018.95 1018.76 1018.56 1018.23 1017.64 1016.52 1016.84 1016.17 1015.51 1014.76 1013.46 1012.02 1010.37 1009.79 1009.27 1008.86 1008.21 1007.68 1007.16 1006.85 1006.52
1021.89 1021.99 1021.94 1021.76 1021.56 1021.28 1021.16 1021.04 1020.88 1020.58 1020.40 1020.21 1019.88 1019.58 1019.44 1019.26 1019.10 1018.56 1017.93 1017.51 1017.09 1016.48 1015.87 1015.63 1015.39 1014.69 1014.34 1013.20 1011.73 1010.07 1009.50 1008.30 1008.00 1007.40 1006.97 1006.60 1006.10 1005.75
1022.15 1021.94 1021.96 1021.81 1021.56 1021.41 1021.13 1020.92 1020.83 1020.76 1020.58 1020.25 1019.98 1019.71 1019.36 1019.00 1018.58 1018.06 1017.50 1016.88 1016.21 1015.13 1014.36 1014.15 1013.90 1013.79 1013.14 1012.27 1011.28 1009.69 1008.96 1008.55 1007.05 1006.66 1006.15 1005.60 1005.22 1004.84
1022.07 1021.89 1021.66 1021.51 1021.29 1021.14 1021.01 1020.91 1020.78 1020.63 1020.44 1020.26 1020.01 1019.58 1019.08 1018.67 1018.21 1017.77 1017.35 1016.68 1015.90 1014.61 1013.50 1012.87 1012.58 1012.29 1011.78 1011.22 1009.74 1009.04 1007.92 1007.20 1006.45 1005.65 1005.34 1004.36 1003.73 1003.29
1021.98 1021.87 1021.68 1021.61 1021.47 1021.32 1021.10 1020.84 1020.70 1020.53 1020.33 1020.23 1019.87 1019.43 1018.98 1018.54 1018.02 1017.51 1016.93 1016.24 1015.31 1014.35 1013.31 1012.22 1011.54 1010.77 1009.84 1009.20 1008.82 1007.48 1006.95 1006.21 1005.24 1004.56 1004.05 1003.22 1002.01 1001.62
1022.05 1021.91 1021.84 1021.75 1021.61 1021.46 1021.21 1021.03 1020.73 1020.47 1020.45 1020.08 1019.66 1019.26 1018.89 1018.33 1017.69 1017.00 1016.24 1015.51 1014.45 1013.57 1012.74 1011.78 1010.99 1010.30 1009.08 1007.59 1006.88 1006.58 1005.88 1005.13 1004.37 1003.51 1002.99 1002.27 1001.28 1000.08
1022.19 1022.00 1021.86 1021.72 1021.51 1021.34 1021.20 1020.92 1020.68 1020.34 1020.01 1019.70 1019.27 1018.75 1018.35 1017.93 1017.23 1016.45 1015.66 1014.77 1013.71 1012.58 1011.68 1010.94 1010.30 1009.58 1008.74 1007.53 1005.92 1004.96 1005.00 1004.33 1003.58 1002.52 1001.69 1001.00 1000.30 999.41
1022.06 1021.96 1021.79 1021.60 1021.40 1021.16 1020.95 1020.74 1020.50 1020.18 1019.71 1019.22 1018.86 1018.41 1017.95 1017.38 1016.58 1015.83 1014.98 1013.96 1013.00 1012.04 1010.93 1010.00 1009.23 1008.63 1007.83 1006.90 1005.49 1004.00 1003.09 1003.14 1002.80 1002.08 1001.23 1000.63 999.49 998.28
1021.89 1021.74 1021.51 1021.26 1021.08 1020.95 1020.75 1020.46 1020.09 1019.73 1019.24 1018.72 1018.23 1017.79 1017.31 1016.75 1015.94 1015.10 1014.20 1013.22 1012.35 1011.39 1010.18 1009.00 1008.17 1007.39 1006.69 1005.85 1004.54 1003.34 1002.08 1001.40 1001.27 1000.67 1000.15 999.97 999.22 997.82
1021.61 1021.47 1021.26 1021.04 1020.83 1020.68 1020.50 1020.16 1019.77 1019.24 1018.77 1018.27 1017.78 1017.25 1016.71 1015.97 1015.15 1014.31 1013.35 1012.41 1011.42 1010.32 1009.27 1008.14 1007.20 1006.40 1005.51 1004.78 1003.76 1002.54 1001.59 1000.53 999.80 998.90 998.12 997.85 997.24 996.68
Thickness
5572 5567 5567 5558 5551 5546 5530 5533 5528 5522 5512 5509 5499 5498 5488 5484 5480 5482 5485 5482 5477 5477 5477 5476 5475 5473 5473 5471 5470 5470 5470 5471 5471 5470 5468 5466 5465 5464
5561 5553 5548 5542 5542 5532 5524 5514 5507 5502 5492 5486 5481 5478 5474 5465 5470 5466 5469 5469 5467 5464 5462 5462 5462 5461 5458 5457 5457 5456 5455 5454 5453 5451 5450 5447 5445 5445
5543 5538 5527 5512 5518 5514 5508 5497 5493 5482 5481 5470 5465 5463 5457 5457 5461 5460 5459 5456 5457 5453 5450 5449 5447 5446 5443 5441 5440 5438 5437 5435 5432 5430 5427 5425 5423 5421
5526 5519 5512 5510 5495 5498 5490 5482 5473 5464 5463 5462 5461 5454 5450 5445 5449 5447 5446 5443 5442 5438 5434 5431 5430 5429 5426 5424 5423 5421 5418 5414 5411 5406 5401 5397 5392 5388
5510 5502 5497 5493 5483 5481 5475 5467 5460 5453 5448 5450 5451 5444 5435 5434 5435 5434 5433 5430 5426 5422 5419 5417 5415 5413 5408 5406 5404 5400 5396 5391 5386 5378 5370 5364 5359 5355
5491 5486 5480 5476 5473 5464 5460 5452 5451 5445 5437 5439 5441 5436 5428 5428 5424 5422 5422 5416 5415 5409 5406 5403 5399 5397 5390 5387 5383 5379 5373 5366 5360 5356 5352 5346 5340 5335
5473 5471 5466 5462 5459 5452 5449 5446 5442 5436 5430 5430 5431 5427 5421 5419 5412 5407 5404 5404 5400 5392 5392 5387 5384 5377 5369 5364 5359 5355 5352 5349 5347 5344 5338 5330 5322 5315
5459 5456 5454 5452 5447 5443 5438 5434 5430 5426 5425 5424 5417 5415 5412 5403 5394 5389 5387 5385 5382 5371 5373 5368 5358 5356 5349 5344 5341 5342 5342 5340 5336 5333 5326 5317 5307 5296
5447 5446 5445 5441 5435 5431 5428 5424 5420 5416 5413 5410 5407 5402 5395 5387 5380 5372 5367 5363 5357 5352 5350 5351 5337 5338 5336 5334 5332 5333 5332 5330 5326 5323 5317 5308 5299 5288
5435 5433 5431 5429 5426 5422 5421 5416 5411 5406 5401 5396 5392 5387 5380 5373 5366 5358 5352 5348 5342 5333 5328 5332 5329 5331 5330 5326 5325 5323 5320 5318 5316 5313 5309 5302 5293 5284
5425 5424 5423 5421 5417 5416 5413 5405 5400 5394 5389 5383 5378 5371 5363 5355 5347 5340 5334 5329 5325 5320 5318 5323 5325 5328 5324 5321 5320 5315 5309 5306 5304 5302 5301 5296 5289 5283
5421 5418 5413 5410 5407 5404 5400 5395 5388 5383 5377 5371 5365 5358 5350 5341 5331 5321 5314 5307 5305 5311 5318 5313 5315 5312 5322 5318 5315 5308 5305 5302 5300 5297 5296 5294 5289 5283
5413 5409 5405 5400 5397 5392 5387 5382 5376 5372 5367 5357 5349 5340 5331 5322 5315 5309 5305 5301 5298 5298 5306 5303 5306 5302 5298 5306 5310 5303 5301 5299 5297 5295 5293 5291 5288 5284
5404 5400 5396 5390 5386 5381 5376 5371 5365 5357 5349 5339 5329 5321 5315 5310 5307 5303 5299 5296 5295 5296 5300 5294 5295 5293 5292 5294 5299 5304 5300 5295 5293 5292 5290 5287 5285 5284
5396 5391 5386 5382 5378 5374 5366 5358 5349 5340 5330 5321 5317 5313 5308 5305 5301 5300 5299 5297 5296 5296 5296 5295 5291 5290 5283 5284 5291 5296 5296 5295 5292 5290 5287 5284 5283 5280
5386 5384 5378 5372 5367 5360 5353 5344 5333 5323 5317 5314 5310 5306 5302 5300 5299 5298 5297 5296 5295 5299 5298 5296 5293 5287 5285 5282 5282 5290 5290 5286 5292 5289 5287 5285 5283 5281
5378 5375 5371 5366 5360 5351 5341 5331 5323 5318 5313 5309 5304 5301 5299 5297 5296 5294 5291 5291 5292 5297 5300 5299 5295 5292 5287 5282 5285 5284 5287 5287 5287 5289 5286 5286 5287 5288
5372 5367 5362 5355 5347 5338 5328 5324 5318 5314 5311 5305 5300 5297 5294 5292 5290 5288 5287 5288 5290 5292 5294 5298 5298 5297 5295 5290 5281 5289 5288 5288 5290 5289 5288 5292 5296 5293
5363 5358 5351 5343 5335 5326 5321 5316 5313 5310 5304 5301 5298 5294 5291 5289 5289 5288 5288 5289 5291 5291 5291 5293 5294 5294 5298 5301 5293 5285 5291 5291 5293 5293 5292 5293 5296 5299
5353 5348 5342 5335 5327 5320 5315 5311 5307 5305 5303 5299 5297 5295 5291 5288 5288 5288 5288 5290 5292 5294 5294 5293 5291 5290 5290 5295 5300 5297 5287 5289 5290 5293 5294 5294 5296 5299
5346 5340 5334 5327 5320 5315 5311 5307 5303 5300 5298 5297 5294 5292 5290 5288 5288 5287 5288 5290 5291 5291 5293 5294 5293 5289 5288 5290 5296 5300 5297 5287 5287 5288 5292 5292 5298 5303
5339 5334 5328 5322 5316 5311 5307 5303 5300 5298 5296 5295 5294 5292 5290 5288 5288 5288 5290 5291 5290 5289 5293 5296 5294 5295 5293 5293 5295 5298 5301 5300 5293 5293 5292 5289 5288 5300
5334 5328 5322 5317 5311 5306 5302 5299 5297 5296 5294 5292 5291 5290 5289 5289 5289 5290 5292 5292 5293 5294 5297 5299 5300 5297 5296 5294 5294 5299 5300 5303 5306 5307 5305 5300 5300 5300